• In Spain
  • List of Countries
  • For 7 days
  • Water Temperature
  • Satellite Maps
  • Weather Map
  • Weather Widgets
  • user-avatar
    Login

    Hourly Weather Mauritius

    Today, 23 May, Wednesday

    Time Temperature Precipitation Wind Pressure Humidity
    00:00 +23°C° 0.1 mm 8 mps 727 mmHg 81%
    01:00 +22°C° 0.1 mm 8 mps 727 mmHg 81%
    02:00 +22°C° 0.1 mm 8 mps 727 mmHg 81%
    03:00 +22°C° 0.1 mm 9 mps 727 mmHg 81%
    04:00 +22°C° 0 mm 8 mps 727 mmHg 81%
    05:00 +22°C° 0.2 mm 8 mps 727 mmHg 81%
    06:00 +22°C° 0.2 mm 9 mps 727 mmHg 81%
    07:00 +22°C° 0.2 mm 9 mps 728 mmHg 81%
    08:00 +23°C° 0.3 mm 9 mps 728 mmHg 79%
    09:00 +23°C° 0.3 mm 9 mps 728 mmHg 77%
    10:00 +23°C° 0.3 mm 9 mps 728 mmHg 75%
    11:00 +24°C° 0.3 mm 9 mps 728 mmHg 75%
    12:00 +24°C° 0.3 mm 9 mps 728 mmHg 74%
    13:00 +24°C° 0.3 mm 9 mps 728 mmHg 74%
    14:00 +24°C° 0.2 mm 9 mps 727 mmHg 74%
    15:00 +24°C° 0.2 mm 9 mps 727 mmHg 75%
    16:00 +24°C° 0.2 mm 9 mps 727 mmHg 75%
    17:00 +23°C° 0 mm 9 mps 727 mmHg 76%
    18:00 +23°C° 0 mm 9 mps 727 mmHg 77%
    19:00 +22°C° 0 mm 9 mps 728 mmHg 77%
    20:00 +22°C° 0 mm 9 mps 728 mmHg 77%
    21:00 +22°C° 0 mm 9 mps 728 mmHg 76%
    22:00 +22°C° 0 mm 9 mps 728 mmHg 76%
    23:00 +22°C° 0 mm 9 mps 728 mmHg 75%

    Tomorrow, 24 May, Thursday

    Time Temperature Precipitation Wind Pressure Humidity
    00:00 +22°C° 0 mm 9 mps 728 mmHg 74%
    01:00 +22°C° 0 mm 8 mps 728 mmHg 73%
    02:00 +22°C° 0.1 mm 8 mps 728 mmHg 74%
    03:00 +22°C° 0.1 mm 8 mps 728 mmHg 76%
    04:00 +22°C° 0.1 mm 7 mps 727 mmHg 78%
    05:00 +22°C° 0.2 mm 8 mps 727 mmHg 79%
    06:00 +22°C° 0.2 mm 8 mps 727 mmHg 79%
    07:00 +22°C° 0.2 mm 8 mps 728 mmHg 80%
    08:00 +22°C° 0.2 mm 8 mps 728 mmHg 79%
    09:00 +23°C° 0.2 mm 9 mps 728 mmHg 77%
    10:00 +23°C° 0.2 mm 9 mps 728 mmHg 76%
    11:00 +23°C° 0.1 mm 9 mps 728 mmHg 73%
    12:00 +24°C° 0.1 mm 9 mps 728 mmHg 71%
    13:00 +24°C° 0.1 mm 9 mps 727 mmHg 69%
    14:00 +24°C° 0 mm 8 mps 727 mmHg 69%
    15:00 +24°C° 0 mm 8 mps 727 mmHg 69%
    16:00 +24°C° 0 mm 8 mps 726 mmHg 70%
    17:00 +23°C° 0 mm 8 mps 727 mmHg 72%
    18:00 +23°C° 0 mm 8 mps 727 mmHg 73%
    19:00 +22°C° 0 mm 8 mps 727 mmHg 75%
    20:00 +22°C° 0.1 mm 8 mps 727 mmHg 75%
    21:00 +22°C° 0.1 mm 8 mps 727 mmHg 75%
    22:00 +22°C° 0.1 mm 8 mps 727 mmHg 76%
    23:00 +22°C° 0 mm 8 mps 727 mmHg 76%

    Day after tomorrow, 25 May, Friday

    Time Temperature Precipitation Wind Pressure Humidity
    00:00 +22°C° 0 mm 8 mps 727 mmHg 76%
    01:00 +23°C° 0 mm 8 mps 727 mmHg 76%
    02:00 +22°C° 0 mm 8 mps 727 mmHg 77%
    03:00 +22°C° 0 mm 8 mps 726 mmHg 78%
    04:00 +22°C° 0 mm 8 mps 726 mmHg 78%
    05:00 +22°C° 0.1 mm 8 mps 726 mmHg 78%
    06:00 +22°C° 0.1 mm 8 mps 726 mmHg 78%
    07:00 +22°C° 0.1 mm 8 mps 726 mmHg 77%
    08:00 +23°C° 0.1 mm 9 mps 727 mmHg 75%
    09:00 +23°C° 0.1 mm 9 mps 727 mmHg 73%
    10:00 +24°C° 0.1 mm 9 mps 728 mmHg 70%
    11:00 +24°C° 0.1 mm 9 mps 727 mmHg 72%
    12:00 +23°C° 0.1 mm 9 mps 727 mmHg 74%
    13:00 +23°C° 0.1 mm 9 mps 726 mmHg 76%
    14:00 +23°C° 0.1 mm 9 mps 726 mmHg 75%
    15:00 +23°C° 0.1 mm 9 mps 726 mmHg 74%
    16:00 +24°C° 0.1 mm 9 mps 726 mmHg 72%
    17:00 +24°C° 0 mm 9 mps 726 mmHg 74%
    18:00 +23°C° 0 mm 9 mps 726 mmHg 75%
    19:00 +23°C° 0 mm 9 mps 726 mmHg 76%
    20:00 +23°C° 0 mm 8 mps 727 mmHg 76%
    21:00 +23°C° 0 mm 8 mps 727 mmHg 76%
    22:00 +23°C° 0 mm 8 mps 727 mmHg 75%
    23:00 +23°C° 0 mm 8 mps 727 mmHg 76%

    26 May, Saturday

    Time Temperature Precipitation Wind Pressure Humidity
    00:00 +23°C° 0 mm 8 mps 727 mmHg 76%
    01:00 +23°C° 0 mm 8 mps 727 mmHg 77%
    02:00 +22°C° 0 mm 7 mps 726 mmHg 77%
    03:00 +22°C° 0 mm 7 mps 726 mmHg 78%
    04:00 +22°C° 0 mm 7 mps 725 mmHg 79%
    05:00 +22°C° 0 mm 7 mps 726 mmHg 78%
    06:00 +22°C° 0 mm 7 mps 726 mmHg 78%
    07:00 +22°C° 0 mm 7 mps 726 mmHg 78%
    08:00 +23°C° 0 mm 7 mps 726 mmHg 75%
    09:00 +24°C° 0 mm 7 mps 727 mmHg 72%
    10:00 +24°C° 0 mm 7 mps 727 mmHg 69%
    11:00 +26°C° 0 mm 7 mps 727 mmHg 68%
    12:00 +26°C° 0 mm 7 mps 726 mmHg 67%
    13:00 +26°C° 0 mm 6 mps 726 mmHg 67%
    14:00 +26°C° 0.1 mm 6 mps 725 mmHg 69%
    15:00 +26°C° 0.1 mm 6 mps 725 mmHg 71%
    16:00 +24°C° 0.1 mm 6 mps 725 mmHg 73%
    17:00 +25°C° 0.1 mm 5 mps 725 mmHg 76%
    18:00 +23°C° 0.1 mm 5 mps 726 mmHg 79%
    19:00 +23°C° 0.1 mm 5 mps 726 mmHg 82%
    20:00 +23°C° 0.2 mm 5 mps 726 mmHg 82%
    21:00 +23°C° 0.2 mm 5 mps 726 mmHg 82%
    22:00 +23°C° 0.2 mm 5 mps 726 mmHg 83%
    23:00 +22°C° 0.1 mm 4 mps 726 mmHg 83%

    27 May, Sunday

    Time Temperature Precipitation Wind Pressure Humidity
    00:00 +22°C° 0.1 mm 4 mps 726 mmHg 83%
    01:00 +22°C° 0.1 mm 4 mps 726 mmHg 84%
    02:00 +22°C° 0.1 mm 4 mps 726 mmHg 84%
    03:00 +22°C° 0.1 mm 4 mps 725 mmHg 84%
    04:00 +22°C° 0.1 mm 4 mps 725 mmHg 84%
    05:00 +22°C° 0.1 mm 4 mps 725 mmHg 84%
    06:00 +22°C° 0.1 mm 4 mps 726 mmHg 83%
    07:00 +22°C° 0.1 mm 4 mps 726 mmHg 83%
    08:00 +23°C° 0.1 mm 4 mps 726 mmHg 80%
    09:00 +25°C° 0.1 mm 4 mps 727 mmHg 77%
    10:00 +25°C° 0.1 mm 4 mps 727 mmHg 74%
    11:00 +26°C° 0.1 mm 4 mps 726 mmHg 73%
    12:00 +26°C° 0.1 mm 4 mps 726 mmHg 72%
    13:00 +26°C° 0.1 mm 4 mps 725 mmHg 71%
    14:00 +26°C° 0.2 mm 4 mps 725 mmHg 73%
    15:00 +25°C° 0.2 mm 4 mps 725 mmHg 74%
    16:00 +25°C° 0.2 mm 4 mps 725 mmHg 76%
    17:00 +25°C° 0.3 mm 4 mps 725 mmHg 78%
    18:00 +23°C° 0.3 mm 4 mps 726 mmHg 81%
    19:00 +23°C° 0.3 mm 4 mps 726 mmHg 84%
    20:00 +23°C° 0.4 mm 4 mps 726 mmHg 84%
    21:00 +23°C° 0.4 mm 4 mps 726 mmHg 84%
    22:00 +23°C° 0.4 mm 4 mps 726 mmHg 84%
    23:00 +23°C° 0.4 mm 4 mps 726 mmHg 84%

    28 May, Monday

    Time Temperature Precipitation Wind Pressure Humidity
    00:00 +23°C° 0.4 mm 4 mps 726 mmHg 84%
    01:00 +22°C° 0.4 mm 4 mps 726 mmHg 84%
    02:00 +22°C° 0.3 mm 4 mps 726 mmHg 84%
    03:00 +22°C° 0.3 mm 4 mps 725 mmHg 84%
    04:00 +22°C° 0.3 mm 4 mps 725 mmHg 84%
    05:00 +22°C° 0.1 mm 4 mps 726 mmHg 84%
    06:00 +22°C° 0.1 mm 4 mps 726 mmHg 84%
    07:00 +22°C° 0.1 mm 4 mps 726 mmHg 84%
    08:00 +23°C° 0 mm 4 mps 726 mmHg 81%
    09:00 +23°C° 0 mm 4 mps 727 mmHg 78%
    10:00 +25°C° 0 mm 4 mps 727 mmHg 75%
    11:00 +25°C° 0 mm 4 mps 726 mmHg 73%
    12:00 +26°C° 0 mm 4 mps 726 mmHg 72%
    13:00 +26°C° 0 mm 4 mps 726 mmHg 70%
    14:00 +25°C° 0 mm 4 mps 725 mmHg 73%
    15:00 +25°C° 0 mm 4 mps 725 mmHg 75%
    16:00 +25°C° 0 mm 4 mps 725 mmHg 77%
    17:00 +23°C° 0.1 mm 4 mps 725 mmHg 78%
    18:00 +23°C° 0.1 mm 5 mps 726 mmHg 80%
    19:00 +23°C° 0.1 mm 5 mps 726 mmHg 81%
    20:00 +23°C° 0.2 mm 5 mps 726 mmHg 81%
    21:00 +23°C° 0.2 mm 5 mps 726 mmHg 81%
    22:00 +22°C° 0.2 mm 5 mps 726 mmHg 82%
    23:00 +22°C° 0.2 mm 5 mps 726 mmHg 82%
    Show more